Weather History for Greenville Downtown, SC

Change the Weather History Date:

Saturday, September 7, 2013

  Actual Average Record
Temperature  
Mean Temperature 74 °F -  
Max Temperature 84 °F 81 °F 95 °F (1998)
Min Temperature 66 °F 63 °F 59 °F (2000)
Cooling Degree Days 9    
Growing Degree Days 24 (Base 50)    
Moisture  
Dew Point 61 °F    
Average Humidity 64    
Maximum Humidity 84    
Minimum Humidity 47    
Precipitation  
Precipitation 0.00 in - - ()
Sea Level Pressure  
Sea Level Pressure 30.08 in    
Wind  
Wind Speed 4 mph (NW)    
Max Wind Speed 9 mph    
Max Gust Speed -    
Visibility 10 miles    
Events      
Averages and records for this station are not official NWS values.
T = Trace of Precipitation, MM = Missing Value Source: NWS Daily Summary

Daily Weather History Graph

Daily Weather History Graph

Search for Another Location

Airport:

Trip Planner

Search our weather history database for the weather conditions in past years. The results will help you decide how hot, cold, wet, or windy it might be!

Date:

Astronomy

Sep. 07, 2013 Rise Set
Actual Time 7:06 AM EDT 7:47 PM EDT
Civil Twilight 6:41 AM EDT 8:12 PM EDT
Nautical Twilight 6:11 AM EDT 8:42 PM EDT
Astronomical Twilight 5:40 AM EDT 9:13 PM EDT
Moon 9:12 AM EDT (9/7) 8:53 PM EDT (9/7)
Length of Visible Light 13h 31m
Length of Day
12h 40m
Waxing Crescent, 5% of the Moon is Illuminated
Sep 7
Waxing Crescent
Sep 12
First Quarter
Sep 19
Full
Sep 26
Last Quarter
Oct 4
New

Hourly Weather History & Observations

Time (EDT) Temp. Heat Index Dew Point Humidity Pressure Visibility Wind Dir Wind Speed Gust Speed Precip Events Conditions
12:53 AM 69.1 °F - 62.1 °F 78% 30.12 in 10.0 mi North 3.5 mph - N/A   Partly Cloudy
1:53 AM 69.1 °F - 61.0 °F 75% 30.12 in 10.0 mi NNE 3.5 mph - N/A   Scattered Clouds
2:53 AM 66.9 °F - 61.0 °F 81% 30.11 in 10.0 mi North 4.6 mph - N/A   Partly Cloudy
3:53 AM 66.0 °F - 61.0 °F 84% 30.10 in 10.0 mi NNE 5.8 mph - N/A   Clear
4:53 AM 66.0 °F - 61.0 °F 84% 30.11 in 10.0 mi NNE 3.5 mph - N/A   Scattered Clouds
5:53 AM 68.0 °F - 60.1 °F 76% 30.11 in 10.0 mi NE 3.5 mph - N/A   Mostly Cloudy
6:53 AM 68.0 °F - 59.0 °F 73% 30.12 in 10.0 mi Calm Calm - N/A   Mostly Cloudy
7:53 AM 68.0 °F - 61.0 °F 78% 30.14 in 10.0 mi NNE 4.6 mph - N/A   Overcast
8:53 AM 71.1 °F - 60.1 °F 68% 30.14 in 10.0 mi NE 5.8 mph - N/A   Mostly Cloudy
9:53 AM 73.9 °F - 60.1 °F 62% 30.15 in 10.0 mi NNE 5.8 mph - N/A   Scattered Clouds
10:53 AM 75.9 °F - 59.0 °F 56% 30.15 in 10.0 mi Calm Calm - N/A   Mostly Cloudy
11:53 AM 78.1 °F - 60.1 °F 54% 30.14 in 10.0 mi Variable 3.5 mph - N/A   Clear
12:53 PM 80.1 °F 80.9 °F 60.1 °F 50% 30.12 in 10.0 mi Calm Calm - N/A   Clear
1:53 PM 82.0 °F 82.7 °F 61.0 °F 49% 30.10 in 10.0 mi Variable 4.6 mph - N/A   Scattered Clouds
2:53 PM 82.9 °F 83.3 °F 61.0 °F 47% 30.08 in 10.0 mi West 4.6 mph - N/A   Clear
3:53 PM 82.9 °F 83.7 °F 62.1 °F 49% 30.05 in 10.0 mi SW 9.2 mph - N/A   Clear
4:53 PM 82.9 °F 83.3 °F 61.0 °F 47% 30.03 in 10.0 mi West 4.6 mph - N/A   Partly Cloudy
5:53 PM 82.9 °F 83.3 °F 61.0 °F 47% 30.02 in 10.0 mi SSW 9.2 mph - N/A   Clear
6:53 PM 81.0 °F 82.2 °F 63.0 °F 54% 30.01 in 10.0 mi WSW 4.6 mph - N/A   Clear
7:53 PM 79.0 °F - 63.0 °F 58% 30.01 in 10.0 mi SSW 3.5 mph - N/A   Clear
8:53 PM 77.0 °F - 64.0 °F 64% 30.01 in 10.0 mi SSW 3.5 mph - N/A   Clear
9:53 PM 75.9 °F - 64.0 °F 67% 30.02 in 10.0 mi SSW 3.5 mph - N/A   Clear
10:53 PM 75.0 °F - 64.0 °F 69% 30.02 in 10.0 mi West 3.5 mph - N/A   Clear
11:53 PM 73.9 °F - 64.0 °F 71% 30.01 in 10.0 mi Calm Calm - N/A   Clear